STARLINK-33803, 63517

Orbit data source: Space-Track

STARLINK-33803, 63517 is a payload satellite owned by SpaceX/Seattle (US) in LEO that was launched on Mon, 07 Apr 2025 UTC via an FALCON 9 launch vehicle from the Air Force Western Test Range (AFWTR). Payload-class satellites include a variety of spacecraft equipped with specific instruments for various scientific and technological missions. These include communications satellites like Starlink; space stations such as the ISS; scientific satellites like the Hubble; Earth observation satellites from companies like Planet Labs, Umbra, and HawkEye 360; GPS; miniature CubeSats for education and research; and military/defense satellites.

Loading next visibility...
Identifier
63517, 2025-071AA
Orbit
LEO
Last TLE update
12 hours ago
Origin
Manufacturer
SpaceX/Seattle
Mission
Operational Commercial Communications
Bus & Motor
STARLINK V2MO, Unknown motor
Mass
575 kg wet, ~530 kg dry
Launch date (UTC)
2025-04-07 (3 months ago)
Launch vehicle
FALCON 9
Launch site
Air Force Western Test Range (AFWTR)
Object type
Payload
Rocket body
Debris
Shape & HBR
Box + 1 Pan, 29 m
Radar Cross Section
41.120 m², Large (>1 m²)

Expand to show TLE details & history

TLE from 12 hours ago
0 STARLINK-33803
1 63517U 25071AA  25182.43916349  .00009021  00000-0  31632-3 0  9994
2 63517  53.1589 226.8151 0001097  76.8376 283.2747 15.30201575 14304
Epoch: 2025-07-01T10:32Z
TLE epoch observation values (Epoch: 2025-07-01T10:32:23.725Z)
Latitude
-0.00003°
Longitude
148.98162°
Altitude
475.937 km
Speed
7.629 km/s
True Right ascension
15h 07m 15s
True Declination
0° 00' 00"
Sunlit
Object was in full shadow at epoch
Visualization orbit readout
Latitude
22.69766°
Longitude
-51.42784°
Altitude
475.682 km
Speed
7.631 km/s
Apparent Right ascension
00h 04m 29s
Apparent Declination
-8° 21' 43"
Sunlit
Object is in daylight
Visualization observer readout
Local Sidereal Time
09:50:37
Azimuth
307.458° NW
Elevation
-46.579°
Doppler factor
1
Orbital elements
Apogee altitude
476.219 km
Perigee altitude
474.715 km
Semi-major axis
6,853.604 km
Eccentricity
0.00011
Inclination
53.1589°
RAAN
226.8151°
Arg. of periapsis
76.8376°
True anomaly
Unknown
Mean anomaly
283.2747°
Eccentric anomaly
Unknown
Mean motion
3.82529 °/min
Orbital period
94.11 mins
BSTAR
0.00031632
Loading maneuver chart data...
Loading SW <> Apogee altitude chart data...
Loading historical data...
Loading historical data...
Loading historical data...
Loading historical data...
Loading historical data...
Loading historical data...
Loading historical data...

STARLINK-33803 Visibility forecast

Observer location: undefined°, undefined°

Span
Click to sort rows by Start time (UTC) header in descending order
Start Az.
Max El. time (UTC)
Max El. Az.
Max El.
End time (UTC)
End Az.
6 mins2025-07-02 05:31:14.649Z220.635° SW2025-07-02 05:34:14.649Z169.711° S42.751°2025-07-02 05:37:14.649Z55.686° ENE
4 mins2025-07-02 07:11:14.649Z303.774° NW2025-07-02 07:12:14.649Z324.569° NNW19.067°2025-07-02 07:15:14.649Z23.043° NE
5 mins2025-07-02 12:07:14.649Z322.325° NNW2025-07-02 12:09:14.649Z14.058° NNE39.909°2025-07-02 12:12:14.649Z114.404° SE
|